Weather in Lenino

Russia / Primorsky Krai     44°13′21″N   134°24′39″E
temp.,
°C
wind,
m/s
gust,
m/s
humid.,
%
clouds,
%
prec.,
mm/h
press.,
hPa
HPBL,
m
26 october, tue
tue2601:00+2s11740 0.0 102112
04:00+2s11780 0.0 102013
07:00+1s11790 0.0 102012
10:00+8s12480 0.0 1019197
13:00+13wsw13310 0.0 10161289
16:00+13w23363 0.0 10141646
19:00+6ssw116391 0.0 101512
22:00+5s22785 0.0 101517
27 october, wed
wed2701:00+4s228289 0.0 101419
04:00+4ssw1182100 0.0 101313
07:00+3sw118342 0.0 101310
10:00+4w1296100 1.7 101378
13:00+5nw2393100 1.1 1012881
16:00+5wnw139179 1.3 1011385
19:00+4wnw22888 0.1 101228
22:00+3w2389100 0.1 101364
28 october, thu
thu2801:00+2sw129999 1.2 1014113
04:00+1wnw1299100 1.4 1014164
07:00+1nw2498100 0.7 1016370
10:00+2wnw3999100 1.8 1019582
13:00+2nw3798100 0.5 1021576
16:00+3nw3986100 0.8 10211282
19:00+2nw398594 0.1 1025571
22:00+1nw368842 0.1 1026190
29 october, fri
fri2901:000wnw239323 0.0 102777
04:00−2wnw22955 0.0 102828
07:00−2wnw21953 0.0 102917
10:00+4nw12731 0.0 1029255
13:00+8nw22510 0.0 1027632
16:00+8nw12490 0.0 1026597
19:00+2w11730 0.0 102710
22:000sw11780 0.0 102710
30 october, sat
sat3001:000wsw11770 0.0 102710
04:000w117278 0.0 102710
07:000w1167100 0.0 102610
10:00+5wnw1252100 0.0 1026138
13:00+9nw2339100 0.0 1025539
16:00+8nw234892 0.0 1025547
19:00+2wnw1170100 0.0 102710
22:00+1wnw1173100 0.0 102710